[[{"header":{"parameterUnit":"m.s-1","parameterCategory":2,"la1":30.2991,"la2":30.254,"lo1":-89.0895,"lo2":-89.0444,"dy":0.0017,"dx":0.0017,"nx":28,"ny":28,"refTime":"2024-11-23T09:00:00:Z","depth":"0","parameterNumber":2,"parameterNumberName":"U-component_of_CURRENTS"},"data":[0,0,0,0,0,0,0,0,0,0,0,0,0,0,0,0,0,0,0,0,0,0,0,0,0,0,0,0,0,0,0,0,0,0,0,0,0,0,0,0,0,0,0,0,0,0,0,0,0,0,0,0,0,0,0,0,0,0,0.1284,0.1285,0,0.1383,0.1385,0.1386,0.1433,0.1433,0.1433,0.1433,0.144,0.144,0.144,0,0,0,0,0,0,0,0,0,0,0,0,0,0.1175,0.1177,0.1284,0.1285,0.1286,0.1383,0.1385,0.1386,0.1433,0.1433,0.1433,0.1433,0.1439,0.144,0.144,0,0,0,0,0,0,0,0,0,0,0,0,0,0.1244,0.1177,0.1284,0.1321,0.1326,0.1383,0.1385,0.1386,0.1433,0.1433,0.1433,0.1433,0.1439,0.144,0.144,0.1445,0,0,0.1441,0.1441,0,0,0,0,0,0,0,0,0.124,0.1248,0.1315,0.1319,0.1324,0.1395,0.1349,0.1401,0.1433,0.1393,0.1433,0.1433,0.1416,0.1418,0.1439,0.1445,0.1445,0.1441,0.1442,0.1442,0.1442,0,0,0,0,0,0,0,0.1235,0.1244,0.1324,0.1316,0.1322,0.1347,0.1356,0.136,0.1402,0.1396,0.14,0.141,0.1418,0.1439,0.1439,0.1446,0.1441,0.1442,0.1442,0.1442,0.154,0.1543,0,0,0,0,0,0,0.122,0.1239,0.1321,0.1327,0.128,0.1349,0.1359,0.1373,0.1405,0.141,0.141,0.1412,0.1438,0.1439,0.144,0.1483,0.1442,0.1442,0.1442,0.1538,0.1541,0.1543,0,0,0,0,0,0,0.1217,0.1227,0.1317,0.1285,0.1298,0.135,0.1366,0.1375,0.1395,0.1416,0.142,0.1421,0.1438,0.1439,0.1472,0.1481,0.1442,0.1443,0.1535,0.1539,0.1542,0.1545,0,0,0,0,0,0,0.1214,0.1225,0.1233,0.1284,0.1299,0.1348,0.1366,0.1377,0.1402,0.1405,0.1426,0.1427,0.1438,0.1472,0.1473,0.1481,0.1443,0.1532,0.1537,0.1541,0.1542,0.1548,0.1553,0,0,0,0,0,0.121,0.1247,0.1233,0.1243,0.1307,0.1348,0.1359,0.1396,0.1402,0.1413,0.1448,0.1426,0.1501,0.1474,0.1474,0.1483,0.153,0.1536,0.1541,0.1539,0.1547,0.1553,0,0,0,0,0,0,0.1285,0.1256,0.1242,0.1289,0.1302,0.1356,0.1384,0.1392,0.143,0.1434,0.145,0.1454,0.1488,0.1496,0.1465,0.1533,0.1514,0.152,0.1513,0.152,0.1526,0.1554,0.1443,0,0,0,0,0,0.128,0.1262,0.1265,0.1314,0.1305,0.1333,0.1355,0.1369,0.1408,0.1424,0.1438,0.1471,0.1512,0.1522,0.155,0.1575,0.163,0.1589,0.1595,0.1599,0.1628,0.1739,0.1758,0.1561,0.1561,0.1561,0,0,0.1353,0.1317,0.133,0.1319,0.1334,0.1355,0.1347,0.1379,0.1413,0.1416,0.1467,0.1482,0.1526,0.1569,0.1584,0.1572,0.1682,0.1606,0.1609,0.1636,0.1747,0.1766,0.1783,0.1565,0.1564,0.1564,0,0,0.1468,0.142,0.1431,0.1408,0.1387,0.1386,0.1385,0.1405,0.1419,0.1455,0.1484,0.1519,0.1552,0.1604,0.1633,0.169,0.1709,0.1683,0.1729,0.1836,0.1853,0.1868,0.1948,0.1971,0.1685,0.1685,0.1686,0,0.1566,0.155,0.146,0.145,0.1456,0.1396,0.1439,0.1439,0.1477,0.1508,0.1471,0.1581,0.1583,0.169,0.1704,0.17,0.176,0.1686,0.1842,0.1859,0.1875,0.1954,0.1979,0.1686,0.1686,0.1686,0.1686,0,0.1661,0.1644,0.1655,0.1593,0.1586,0.1607,0.1568,0.157,0.1553,0.1568,0.1635,0.165,0.173,0.1717,0.1719,0.1837,0.1842,0.1832,0.1817,0.1895,0.1973,0.1999,0.1687,0.1687,0.1687,0.1687,0,0,0.189,0.1754,0.1753,0.1719,0.1648,0.1655,0.1682,0.1705,0.1734,0.1729,0.181,0.1846,0.1839,0.1877,0.1876,0.1939,0.2066,0.1926,0.1932,0.1993,0.23,0.2266,0.2291,0.2083,0.2088,0.2092,0.2303,0,0.2002,0.1988,0.1904,0.1923,0.1904,0.1833,0.1859,0.1858,0.1845,0.1884,0.1898,0.1954,0.1904,0.193,0.1994,0.2045,0.2139,0.201,0.2228,0.2235,0.2185,0.2322,0.2306,0.2491,0.2328,0.2333,0.2336,0,0.2086,0.2051,0.2081,0.201,0.2006,0.2019,0.2017,0.2034,0.2054,0.2051,0.2106,0.2102,0.2193,0.2124,0.2297,0.2218,0.2282,0.2309,0.2319,0.2312,0.2252,0.2393,0.2544,0.2469,0.2376,0.2373,0.237,0,0.2178,0.2158,0.2171,0.2148,0.2086,0.2112,0.2102,0.2102,0.2109,0.2165,0.218,0.2282,0.2316,0.2427,0.2444,0.2405,0.2614,0.2578,0.2626,0.2623,0.2669,0.2661,0.2768,0.2759,0.2758,0.2758,0.2757,0,0.2246,0.2242,0.2207,0.2193,0.2219,0.2173,0.2208,0.2203,0.2228,0.2241,0.2272,0.2309,0.2392,0.248,0.253,0.265,0.2708,0.2685,0.2701,0.2665,0.2655,0.2636,0.2543,0.2765,0.2764,0.2762,0.2761,0,0.2256,0.2249,0.2239,0.223,0.223,0.2235,0.2224,0.2237,0.2267,0.2294,0.2319,0.2374,0.2488,0.2562,0.2721,0.275,0.2815,0.29,0.2826,0.2829,0.2795,0.2702,0.2765,0.2725,0.3037,0.3037,0.3038,0,0.2225,0.223,0.2243,0.2239,0.222,0.2229,0.2222,0.2245,0.225,0.2313,0.2326,0.2447,0.249,0.2703,0.2813,0.2968,0.2856,0.3028,0.2961,0.2838,0.2747,0.2608,0.2559,0.3026,0.3027,0.3027,0.3027,0,0.2164,0.219,0.2185,0.2195,0.2197,0.2193,0.2194,0.2212,0.2236,0.2268,0.2309,0.2366,0.2566,0.2687,0.2873,0.2975,0.2903,0.3041,0.2971,0.281,0.2618,0.257,0.2806,0.3031,0.3031,0.303,0.303,0.303,0.2108,0.2104,0.2126,0.2124,0.2131,0.2131,0.2113,0.2132,0.2147,0.2161,0.2251,0.231,0.2527,0.2791,0.2885,0.3031,0.2938,0.301,0.293,0.2819,0.2708,0.2926,0.3112,0.3112,0.3112,0.3112,0.3112,0,0.2024,0.2042,0.2043,0.2049,0.2029,0.2059,0.206,0.2032,0.2023,0.2089,0.2118,0.2294,0.249,0.2704,0.2932,0.2905,0.2868,0.286,0.2686,0.2664,0.2953,0.2877,0.2951,0.2951,0.2951,0.2951,0.2951,0.2951,0.1982,0.1969,0.1984,0.1941,0.1939,0.1888,0.1876,0.1858,0.1888,0.1905,0.1971,0.2063,0.2326,0.2607,0.2741,0.2753,0.2576,0.2512,0.2455,0.2659,0.2666,0.2673,0.2585,0.2596,0.2595,0.2171,0.2167,0.2164]},{"header":{"parameterUnit":"m.s-1","parameterCategory":2,"la1":30.2991,"la2":30.254,"lo1":-89.0895,"lo2":-89.0444,"dy":0.0017,"dx":0.0017,"nx":28,"ny":28,"refTime":"2024-11-23T09:00:00:Z","depth":"0","parameterNumber":3,"parameterNumberName":"V-component_of_CURRENTS"},"data":[0,0,0,0,0,0,0,0,0,0,0,0,0,0,0,0,0,0,0,0,0,0,0,0,0,0,0,0,0,0,0,0,0,0,0,0,0,0,0,0,0,0,0,0,0,0,0,0,0,0,0,0,0,0,0,0,0,0,-0.0618,-0.0619,0,-0.0735,-0.0737,-0.0738,-0.0836,-0.0837,-0.0838,-0.0839,-0.0969,-0.0972,-0.0974,0,0,0,0,0,0,0,0,0,0,0,0,0,-0.0491,-0.0493,-0.0618,-0.062,-0.0621,-0.0735,-0.0737,-0.0739,-0.0836,-0.0837,-0.0838,-0.0839,-0.0968,-0.0971,-0.0974,0,0,0,0,0,0,0,0,0,0,0,0,0,-0.0572,-0.0493,-0.0618,-0.0682,-0.0689,-0.0735,-0.0737,-0.0739,-0.0836,-0.0837,-0.0839,-0.084,-0.0967,-0.0971,-0.0975,-0.0971,0,0,-0.0987,-0.0988,0,0,0,0,0,0,0,0,-0.0567,-0.0577,-0.0671,-0.0678,-0.0686,-0.0772,-0.074,-0.0817,-0.0835,-0.0781,-0.0839,-0.0841,-0.0902,-0.0912,-0.0932,-0.0977,-0.0983,-0.0987,-0.0989,-0.0991,-0.0992,0,0,0,0,0,0,0,-0.0561,-0.0572,-0.0666,-0.0673,-0.0681,-0.0709,-0.0722,-0.0755,-0.0834,-0.0786,-0.0793,-0.0804,-0.0907,-0.0928,-0.0936,-0.0985,-0.0987,-0.099,-0.0993,-0.0994,-0.1026,-0.1024,0,0,0,0,0,0,-0.0542,-0.0567,-0.0662,-0.0669,-0.0627,-0.071,-0.0725,-0.0744,-0.0833,-0.0848,-0.0803,-0.0808,-0.0921,-0.0931,-0.0941,-0.0928,-0.0991,-0.0995,-0.0997,-0.1027,-0.1026,-0.1024,0,0,0,0,0,0,-0.0539,-0.055,-0.0657,-0.0619,-0.0635,-0.0711,-0.0731,-0.0745,-0.0767,-0.0845,-0.0861,-0.0809,-0.0922,-0.0935,-0.0963,-0.0935,-0.0996,-0.1,-0.1029,-0.1027,-0.1025,-0.0911,0,0,0,0,0,0,-0.0535,-0.0548,-0.0544,-0.0618,-0.0636,-0.0677,-0.073,-0.0746,-0.077,-0.0779,-0.0856,-0.087,-0.0925,-0.0957,-0.0967,-0.0941,-0.1003,-0.1031,-0.1028,-0.1025,-0.0917,-0.0905,-0.0896,0,0,0,0,0,-0.053,-0.0516,-0.0543,-0.0554,-0.0632,-0.0677,-0.0688,-0.0748,-0.0769,-0.0773,-0.0822,-0.0867,-0.0946,-0.0959,-0.0971,-0.0946,-0.1032,-0.1029,-0.1026,-0.0922,-0.0908,-0.0896,0,0,0,0,0,0,-0.0441,-0.0527,-0.0558,-0.0566,-0.0615,-0.0693,-0.0695,-0.0734,-0.0775,-0.0781,-0.0854,-0.087,-0.0883,-0.0925,-0.0937,-0.0945,-0.0994,-0.0993,-0.0911,-0.0898,-0.0888,-0.0844,-0.1006,0,0,0,0,0,-0.0422,-0.0441,-0.0521,-0.0521,-0.0546,-0.0616,-0.0637,-0.0681,-0.0731,-0.0751,-0.0802,-0.0848,-0.0877,-0.0897,-0.0935,-0.0938,-0.0935,-0.0927,-0.0917,-0.0907,-0.0879,-0.0845,-0.0828,-0.1013,-0.1013,-0.1013,0,0,-0.0383,-0.043,-0.0439,-0.0504,-0.0547,-0.0568,-0.0633,-0.066,-0.0666,-0.0756,-0.0768,-0.0814,-0.087,-0.0878,-0.0887,-0.0911,-0.0851,-0.0903,-0.0895,-0.0871,-0.084,-0.0822,-0.0805,-0.1011,-0.1011,-0.1011,0,0,-0.0321,-0.0362,-0.0368,-0.0406,-0.0469,-0.0516,-0.0518,-0.0593,-0.0617,-0.064,-0.0696,-0.0713,-0.0775,-0.0797,-0.0818,-0.0765,-0.0796,-0.0786,-0.0697,-0.0665,-0.0649,-0.0635,-0.0595,-0.0579,-0.078,-0.0779,-0.0779,0,-0.0273,-0.0296,-0.0368,-0.0383,-0.0398,-0.0486,-0.0484,-0.0518,-0.0585,-0.0581,-0.0629,-0.067,-0.0728,-0.0708,-0.0701,-0.0738,-0.0725,-0.0743,-0.0648,-0.0634,-0.0622,-0.0585,-0.0568,-0.0773,-0.0774,-0.0775,-0.0775,0,-0.0236,-0.0244,-0.0243,-0.0298,-0.0317,-0.033,-0.0392,-0.0403,-0.0442,-0.0474,-0.0468,-0.0535,-0.0553,-0.0577,-0.0631,-0.0568,-0.0588,-0.0638,-0.0676,-0.0596,-0.0563,-0.0547,-0.0765,-0.0767,-0.0769,-0.077,0,0,-0.018,-0.0213,-0.0216,-0.0212,-0.0276,-0.0286,-0.028,-0.0298,-0.0273,-0.0328,-0.0284,-0.0341,-0.037,-0.0392,-0.045,-0.0431,-0.0347,-0.0492,-0.0493,-0.0442,-0.0259,-0.0294,-0.0281,-0.0382,-0.0379,-0.0376,-0.0267,0,-0.0139,-0.0125,-0.0157,-0.0128,-0.0131,-0.0177,-0.0157,-0.0172,-0.0197,-0.0176,-0.0217,-0.0214,-0.0302,-0.0306,-0.0294,-0.0343,-0.0301,-0.037,-0.0353,-0.0352,-0.0384,-0.0263,-0.0271,-0.0177,-0.0252,-0.025,-0.0248,0,-0.0121,-0.0109,-0.0073,-0.0041,-0.0044,-0.0032,-0.0004,0.0001,0.0008,-0.0003,0.0004,-0.0039,-0.0022,-0.0113,-0.01,-0.0141,-0.0173,-0.0207,-0.0205,-0.0262,-0.0357,-0.0272,-0.0146,-0.0237,-0.0224,-0.0226,-0.0228,0,-0.0077,-0.0053,-0.0011,-0.001,0.0006,0.0037,0.0046,0.0057,0.0074,0.0109,0.0127,0.014,0.0133,0.0116,0.0019,-0.0025,0.0036,-0.0039,-0.0082,-0.0086,-0.0099,-0.0109,-0.0047,0.0015,0.0014,0.0014,0.0014,0,-0.0046,-0.0014,0.0017,0.0033,0.0098,0.0097,0.0159,0.017,0.0204,0.0237,0.0218,0.0246,0.0188,0.0186,0.0111,0.0072,0.0114,-0.0018,-0.0043,-0.0061,-0.0069,-0.0159,-0.023,0.0018,0.0017,0.0016,0.0016,0,-0.0025,-0.0007,0.004,0.009,0.0109,0.0149,0.0195,0.0236,0.0269,0.0316,0.0332,0.0345,0.0347,0.0292,0.0263,0.0182,0.0095,0.012,0.0105,0.0076,-0.0065,-0.013,-0.0094,-0.0145,0.0123,0.0123,0.0123,0,-0.0008,0.0017,0.0072,0.0099,0.0117,0.0173,0.0205,0.025,0.0283,0.036,0.0385,0.0423,0.0431,0.0401,0.0295,0.0234,0.0116,0.0167,0.0078,-0.0024,-0.0114,-0.0175,-0.0227,0.0114,0.0114,0.0114,0.0114,0,0.0026,0.0036,0.007,0.0116,0.0156,0.0206,0.0256,0.0293,0.0347,0.04,0.0466,0.0498,0.0475,0.0423,0.0335,0.0257,0.0088,0.0162,0.0074,-0.0079,-0.0153,-0.0233,-0.001,0.0114,0.0114,0.0114,0.0114,0.0114,0.0046,0.0068,0.0101,0.0142,0.0182,0.0231,0.0275,0.0329,0.0396,0.0485,0.051,0.0585,0.0522,0.0406,0.0285,0.009,0.0069,0.0013,-0.0041,-0.008,-0.0174,0.0051,0.0117,0.0117,0.0117,0.0117,0.0117,0,0.0074,0.0092,0.0129,0.0177,0.0214,0.0235,0.0305,0.0353,0.0428,0.0521,0.0586,0.0633,0.0512,0.0373,0.014,-0.0057,-0.0161,-0.0168,-0.0247,-0.028,-0.0047,-0.0095,-0.0094,-0.0094,-0.0093,-0.0093,-0.0093,-0.0093,0.0094,0.0124,0.0135,0.0195,0.0227,0.0289,0.0329,0.04,0.0479,0.0604,0.0691,0.0756,0.0737,0.0245,-0.0118,-0.0229,-0.0399,-0.044,-0.0515,-0.0364,-0.0352,-0.034,-0.04,-0.0462,-0.0463,-0.0734,-0.0737,-0.0739]}],[{"header":{"parameterUnit":"m.s-1","parameterCategory":2,"la1":30.2991,"la2":30.254,"lo1":-89.0895,"lo2":-89.0444,"dy":0.0017,"dx":0.0017,"nx":28,"ny":28,"refTime":"2024-11-23T09:00:00:Z","depth":"2","parameterNumber":2,"parameterNumberName":"U-component_of_CURRENTS"},"data":[0,0,0,0,0,0,0,0,0,0,0,0,0,0,0,0,0,0,0,0,0,0,0,0,0,0,0,0,0,0,0,0,0,0,0,0,0,0,0,0,0,0,0,0,0,0,0,0,0,0,0,0,0,0,0,0,0,0,-0.0023,-0.0023,0,-0.0047,-0.0048,-0.0048,-0.007,-0.007,-0.007,-0.007,-0.0136,-0.0138,-0.0139,0,0,0,0,0,0,0,0,0,0,0,0,0,-0.0011,-0.0011,-0.0023,-0.0023,-0.0024,-0.0047,-0.0048,-0.0048,-0.007,-0.007,-0.007,-0.007,-0.0136,-0.0138,-0.0139,0,0,0,0,0,0,0,0,0,0,0,0,0,-0.0024,-0.0011,-0.0023,-0.0037,-0.0038,-0.0047,-0.0048,-0.0048,-0.007,-0.007,-0.007,-0.0071,-0.0135,-0.0137,-0.014,-0.0148,0,0,-0.0147,-0.0148,0,0,0,0,0,0,0,0,-0.0023,-0.0025,-0.0035,-0.0036,-0.0038,-0.0055,-0.0068,-0.0084,-0.007,-0.0058,-0.007,-0.0071,-0.0112,-0.0117,-0.0121,-0.0151,-0.0154,-0.0147,-0.0149,-0.015,-0.015,0,0,0,0,0,0,0,-0.0022,-0.0024,-0.0033,-0.0035,-0.0037,-0.0047,-0.0049,-0.0071,-0.0085,-0.0059,-0.0061,-0.0063,-0.0114,-0.0118,-0.0123,-0.0155,-0.0147,-0.0149,-0.0151,-0.0152,-0.0163,-0.0162,0,0,0,0,0,0,-0.0017,-0.0023,-0.0033,-0.0034,-0.003,-0.0047,-0.0049,-0.005,-0.0084,-0.0088,-0.0062,-0.0063,-0.0114,-0.012,-0.0125,-0.0085,-0.015,-0.0152,-0.0153,-0.0164,-0.0163,-0.0162,0,0,0,0,0,0,-0.0017,-0.0018,-0.0032,-0.0029,-0.0031,-0.0047,-0.0047,-0.005,-0.0047,-0.0085,-0.0091,-0.0055,-0.0115,-0.0122,-0.013,-0.009,-0.0153,-0.0155,-0.0165,-0.0164,-0.0162,-0.0039,0,0,0,0,0,0,-0.0016,-0.0017,-0.0007,-0.0028,-0.0031,-0.0025,-0.0047,-0.005,-0.0048,-0.0049,-0.0081,-0.0088,-0.0116,-0.0126,-0.0132,-0.0095,-0.0157,-0.0167,-0.0165,-0.0163,-0.0045,-0.0034,-0.0024,0,0,0,0,0,-0.0016,-0.0001,-0.0007,-0.0008,-0.002,-0.0024,-0.0026,-0.0039,-0.0047,-0.0039,-0.0058,-0.0086,-0.0117,-0.0127,-0.0135,-0.0097,-0.0168,-0.0165,-0.0163,-0.0049,-0.0036,-0.0024,0,0,0,0,0,0,0.0008,-0.0003,-0.0009,0.0001,-0.0006,-0.0028,-0.0017,-0.003,-0.0039,-0.0036,-0.0076,-0.0084,-0.0076,-0.0108,-0.0118,-0.0096,-0.0146,-0.0145,-0.0057,-0.0045,-0.0034,-0.0003,-0.0159,0,0,0,0,0,0.0019,0.0028,0.0012,0.0022,0.0023,0.0005,0.0004,-0.0004,-0.0018,-0.0021,-0.0042,-0.0062,-0.0073,-0.0076,-0.0097,-0.0086,-0.0086,-0.0067,-0.0056,-0.0047,-0.0028,0.0014,0.0031,-0.0153,-0.0153,-0.0154,0,0,0.0027,0.0026,0.0029,0.0028,0.0024,0.003,0.0004,0.0013,0.0025,-0.0028,-0.0011,-0.0031,-0.0065,-0.0048,-0.0047,-0.0068,0.0004,-0.0044,-0.0035,-0.0021,0.0018,0.0036,0.0053,-0.0152,-0.0152,-0.0152,0,0,0.0043,0.0053,0.006,0.0066,0.0068,0.0062,0.0068,0.0058,0.0064,0.0074,0.0045,0.0055,0.0028,0.0028,0.0019,0.0072,0.0053,0.0061,0.0147,0.0188,0.0204,0.0218,0.0246,0.0262,0.0073,0.0073,0.0073,0,0.0048,0.0062,0.0062,0.0076,0.0087,0.0079,0.0092,0.0101,0.0092,0.0109,0.0094,0.0097,0.0072,0.0104,0.013,0.01,0.0115,0.0107,0.0205,0.0219,0.0232,0.0257,0.0273,0.0079,0.0079,0.0078,0.0077,0,0.0061,0.0084,0.0095,0.011,0.0125,0.0141,0.0152,0.0176,0.0186,0.0192,0.023,0.0213,0.0221,0.0218,0.0195,0.0271,0.025,0.0212,0.0182,0.0259,0.0278,0.0293,0.0088,0.0086,0.0084,0.0083,0,0,0.0036,0.0088,0.0095,0.0117,0.0149,0.0159,0.0206,0.0238,0.0274,0.0295,0.0344,0.0358,0.0367,0.0359,0.034,0.0384,0.0489,0.0353,0.0352,0.0396,0.0585,0.0576,0.059,0.0478,0.0481,0.0483,0.0565,0,0.004,0.0078,0.0106,0.0152,0.0173,0.0208,0.0249,0.0289,0.0323,0.0373,0.04,0.043,0.0414,0.0431,0.0483,0.0474,0.0532,0.047,0.049,0.0491,0.0487,0.0608,0.0473,0.0537,0.0579,0.0581,0.0583,0,0.0041,0.0069,0.0115,0.0183,0.0196,0.0229,0.0307,0.0343,0.042,0.0451,0.0515,0.0525,0.0601,0.0568,0.0652,0.0617,0.0629,0.0626,0.0628,0.0591,0.051,0.0464,0.0561,0.0607,0.0605,0.0603,0.0601,0,0.0026,0.0081,0.0123,0.0145,0.0214,0.0256,0.0296,0.0372,0.0417,0.051,0.0553,0.0632,0.0675,0.0719,0.0739,0.0707,0.082,0.0759,0.0766,0.0764,0.0638,0.062,0.0841,0.0841,0.0841,0.0841,0.0841,0,0.0026,0.0064,0.0124,0.0151,0.0209,0.0258,0.0333,0.0388,0.0472,0.0538,0.0598,0.0663,0.0721,0.0783,0.0789,0.0843,0.0868,0.0822,0.0806,0.0675,0.0661,0.0698,0.068,0.0844,0.0843,0.0843,0.0842,0,0.0024,0.0059,0.0113,0.0184,0.021,0.0257,0.0352,0.0405,0.0482,0.0574,0.061,0.0714,0.0811,0.0854,0.0922,0.0906,0.094,0.0945,0.0791,0.0757,0.0841,0.0828,0.0974,0.0975,0.0976,0.0976,0.0977,0,0.0032,0.0056,0.0133,0.0167,0.0208,0.0278,0.033,0.0411,0.0468,0.0601,0.0645,0.0769,0.0855,0.0959,0.0963,0.1001,0.1,0.0879,0.08,0.0897,0.0865,0.0851,0.0838,0.0673,0.0671,0.0669,0.0668,0,0.0041,0.007,0.0111,0.0177,0.0235,0.0296,0.0373,0.0411,0.0513,0.059,0.071,0.0787,0.0901,0.0902,0.0947,0.0927,0.0863,0.0848,0.101,0.0665,0.0621,0.0587,0.0582,0.0653,0.0655,0.0656,0.0657,0.0657,0.0048,0.0074,0.0124,0.0191,0.025,0.0309,0.0353,0.0424,0.0504,0.0605,0.0691,0.077,0.0743,0.0783,0.0802,0.0818,0.0846,0.0747,0.0749,0.0753,0.0708,0.0669,0.0701,0.0703,0.0704,0.0705,0.0707,0,0.0048,0.0084,0.0135,0.0202,0.0252,0.0307,0.038,0.0401,0.0477,0.0571,0.0657,0.057,0.0583,0.0633,0.0641,0.0641,0.0605,0.0611,0.0527,0.0539,0.055,0.0493,0.0431,0.0431,0.0431,0.0432,0,0,0.0046,0.0083,0.0109,0.0183,0.0247,0.0314,0.0358,0.0385,0.0432,0.0466,0.0507,0.052,0.0555,0.0461,0.0441,0.0472,0.0513,0.0453,0.0651,0.056,0.0573,0.0584,0.0504,0,0,0,0,0]},{"header":{"parameterUnit":"m.s-1","parameterCategory":2,"la1":30.2991,"la2":30.254,"lo1":-89.0895,"lo2":-89.0444,"dy":0.0017,"dx":0.0017,"nx":28,"ny":28,"refTime":"2024-11-23T09:00:00:Z","depth":"2","parameterNumber":3,"parameterNumberName":"V-component_of_CURRENTS"},"data":[0,0,0,0,0,0,0,0,0,0,0,0,0,0,0,0,0,0,0,0,0,0,0,0,0,0,0,0,0,0,0,0,0,0,0,0,0,0,0,0,0,0,0,0,0,0,0,0,0,0,0,0,0,0,0,0,0,0,-0.0001,-0.0002,0,-0.0053,-0.0054,-0.0054,-0.0094,-0.0094,-0.0095,-0.0095,-0.0157,-0.0158,-0.0159,0,0,0,0,0,0,0,0,0,0,0,0,0,0.0065,0.0064,-0.0001,-0.0002,-0.0003,-0.0053,-0.0054,-0.0055,-0.0094,-0.0094,-0.0095,-0.0095,-0.0156,-0.0158,-0.0159,0,0,0,0,0,0,0,0,0,0,0,0,0,0.0028,0.0064,-0.0001,-0.0029,-0.0032,-0.0053,-0.0054,-0.0055,-0.0094,-0.0094,-0.0095,-0.0095,-0.0156,-0.0157,-0.0159,-0.0158,0,0,-0.0165,-0.0166,0,0,0,0,0,0,0,0,0.003,0.0026,-0.0024,-0.0027,-0.003,-0.0068,-0.0053,-0.009,-0.0093,-0.0069,-0.0095,-0.0096,-0.0128,-0.0132,-0.0139,-0.0161,-0.0163,-0.0165,-0.0166,-0.0167,-0.0168,0,0,0,0,0,0,0,0.0033,0.0028,-0.0021,-0.0025,-0.0029,-0.0039,-0.0045,-0.006,-0.0094,-0.0071,-0.0075,-0.0082,-0.013,-0.0137,-0.0141,-0.0164,-0.0165,-0.0167,-0.0168,-0.0169,-0.0279,-0.028,0,0,0,0,0,0,0.0038,0.003,-0.0019,-0.0023,-0.0002,-0.0039,-0.0046,-0.0055,-0.0094,-0.01,-0.0081,-0.0083,-0.0134,-0.0139,-0.0143,-0.0209,-0.0167,-0.0169,-0.017,-0.0277,-0.0279,-0.0281,0,0,0,0,0,0,0.004,0.0034,-0.0017,0.0002,-0.0005,-0.004,-0.005,-0.0056,-0.0084,-0.0101,-0.0108,-0.0105,-0.0135,-0.0141,-0.0188,-0.0209,-0.017,-0.0171,-0.0275,-0.0277,-0.028,-0.0297,0,0,0,0,0,0,0.0042,0.0035,0.0022,0.0002,-0.0006,-0.0045,-0.0049,-0.0056,-0.0086,-0.009,-0.0124,-0.0129,-0.0136,-0.0185,-0.0189,-0.0211,-0.0173,-0.0272,-0.0276,-0.0279,-0.0295,-0.03,-0.0305,0,0,0,0,0,0.0044,0.0024,0.0022,0.0015,-0.002,-0.0046,-0.0052,-0.0077,-0.0087,-0.0104,-0.0135,-0.0129,-0.021,-0.0188,-0.0193,-0.0215,-0.0271,-0.0275,-0.0279,-0.0292,-0.0299,-0.0305,0,0,0,0,0,0,0.0029,0.0018,0.0014,-0.0013,-0.0032,-0.0053,-0.0076,-0.0087,-0.0124,-0.0134,-0.0149,-0.0157,-0.0205,-0.0214,-0.0189,-0.026,-0.024,-0.0246,-0.0249,-0.0256,-0.0261,-0.0239,-0.0174,0,0,0,0,0,0.0026,0.0013,-0.0001,-0.0027,-0.0035,-0.0056,-0.0073,-0.0088,-0.0117,-0.0134,-0.0159,-0.0191,-0.0222,-0.0242,-0.0268,-0.0304,-0.0303,-0.0325,-0.033,-0.0334,-0.0323,-0.0353,-0.0359,-0.0294,-0.0294,-0.0294,0,0,0.0011,0.0002,-0.0007,-0.003,-0.0047,-0.0062,-0.0069,-0.01,-0.012,-0.0134,-0.0182,-0.021,-0.0237,-0.0281,-0.0304,-0.0293,-0.0356,-0.034,-0.0343,-0.0328,-0.0358,-0.0364,-0.0369,-0.0297,-0.0297,-0.0296,0,0,-0.0014,-0.0031,-0.004,-0.0053,-0.0076,-0.0086,-0.0097,-0.0125,-0.0148,-0.0189,-0.021,-0.0252,-0.0299,-0.0322,-0.0338,-0.0389,-0.0383,-0.0407,-0.0415,-0.0445,-0.045,-0.0454,-0.0465,-0.047,-0.041,-0.041,-0.041,0,-0.0028,-0.0039,-0.0052,-0.0063,-0.0073,-0.0096,-0.0107,-0.0134,-0.0178,-0.0194,-0.0211,-0.0286,-0.0313,-0.0355,-0.0381,-0.0398,-0.041,-0.0383,-0.0449,-0.0454,-0.0457,-0.0467,-0.0472,-0.0412,-0.0412,-0.0411,-0.0411,0,-0.0045,-0.006,-0.0072,-0.0083,-0.0101,-0.0118,-0.0142,-0.0173,-0.0201,-0.022,-0.0275,-0.0319,-0.0356,-0.0384,-0.0399,-0.0446,-0.0444,-0.045,-0.0424,-0.0464,-0.0473,-0.0478,-0.0414,-0.0413,-0.0413,-0.0412,0,0,-0.0041,-0.0073,-0.0077,-0.0075,-0.0107,-0.0116,-0.0157,-0.0182,-0.0195,-0.0256,-0.0275,-0.0351,-0.0369,-0.039,-0.042,-0.0455,-0.0502,-0.0468,-0.0469,-0.0462,-0.0561,-0.0503,-0.0502,-0.0524,-0.0525,-0.0526,-0.0556,0,-0.0041,-0.0059,-0.0078,-0.0092,-0.0092,-0.0124,-0.0148,-0.018,-0.0214,-0.0243,-0.0297,-0.033,-0.0373,-0.0391,-0.0438,-0.0479,-0.0516,-0.0492,-0.0536,-0.0537,-0.0467,-0.0506,-0.0459,-0.0477,-0.056,-0.0561,-0.0562,0,-0.003,-0.004,-0.0056,-0.0068,-0.0071,-0.009,-0.0113,-0.0139,-0.0188,-0.0213,-0.0264,-0.0298,-0.0362,-0.0389,-0.0483,-0.0469,-0.0518,-0.0552,-0.0554,-0.0491,-0.0488,-0.0453,-0.0483,-0.057,-0.0569,-0.0568,-0.0568,0,0.0012,-0.0014,-0.0024,-0.0031,-0.0059,-0.0074,-0.0091,-0.0132,-0.0135,-0.0192,-0.0193,-0.0279,-0.0301,-0.0392,-0.0469,-0.0484,-0.0555,-0.0581,-0.0574,-0.057,-0.0531,-0.0521,-0.0647,-0.0647,-0.0647,-0.0647,-0.0646,0,0.0042,0.0038,-0.0006,-0.0007,-0.0003,-0.0038,-0.0038,-0.0069,-0.0095,-0.0087,-0.0171,-0.0172,-0.0305,-0.0359,-0.0453,-0.0514,-0.0545,-0.0571,-0.0576,-0.0536,-0.0527,-0.0605,-0.06,-0.0648,-0.0647,-0.0647,-0.0647,0,0.0091,0.0057,0.0057,0.0024,0.0017,0.002,0.0009,0.0017,-0.002,-0.0012,-0.0024,-0.0089,-0.0162,-0.0277,-0.0399,-0.0462,-0.0545,-0.0559,-0.0489,-0.0485,-0.0547,-0.0543,-0.0565,-0.0563,-0.0561,-0.056,-0.0559,0,0.0113,0.0115,0.0089,0.0094,0.0077,0.0076,0.0085,0.0055,0.0068,0.0048,0.0065,0.0005,-0.0016,-0.0158,-0.0278,-0.0406,-0.0487,-0.0456,-0.0478,-0.0537,-0.054,-0.0538,-0.0536,-0.0443,-0.0441,-0.044,-0.0439,0,0.0171,0.0151,0.0151,0.0156,0.0161,0.0181,0.0185,0.0208,0.0183,0.02,0.0215,0.0201,0.0091,-0.0018,-0.0179,-0.0262,-0.0435,-0.0426,-0.0519,-0.0457,-0.0421,-0.0424,-0.0427,-0.0425,-0.0426,-0.0427,-0.0428,-0.0428,0.0215,0.0228,0.0219,0.0229,0.0243,0.0274,0.0298,0.0321,0.0361,0.0382,0.0357,0.0328,0.0152,-0.0023,-0.0145,-0.0267,-0.0287,-0.0377,-0.0383,-0.039,-0.0356,-0.0319,-0.0296,-0.0297,-0.0297,-0.0298,-0.0298,0,0.0277,0.0279,0.0296,0.0311,0.0341,0.0325,0.0363,0.0397,0.0457,0.0466,0.0493,0.032,0.0216,0.0019,-0.0117,-0.0216,-0.0234,-0.0278,-0.0308,-0.0319,-0.0329,-0.0295,-0.0217,-0.0218,-0.0218,-0.0218,0,0,0.031,0.0337,0.034,0.0396,0.0404,0.0442,0.0464,0.0519,0.0528,0.0532,0.0491,0.0456,0.0211,0.0081,-0.0055,-0.013,-0.0196,-0.0134,-0.018,-0.0206,-0.0215,-0.0359,-0.0314,0,0,0,0,0]}],[{"header":{"parameterUnit":"m.s-1","parameterCategory":2,"la1":30.2991,"la2":30.254,"lo1":-89.0895,"lo2":-89.0444,"dy":0.0017,"dx":0.0017,"nx":28,"ny":28,"refTime":"2024-11-23T09:00:00:Z","depth":"4","parameterNumber":2,"parameterNumberName":"U-component_of_CURRENTS"},"data":[0,0,0,0,0,0,0,0,0,0,0,0,0,0,0,0,0,0,0,0,0,0,0,0,0,0,0,0,0,0,0,0,0,0,0,0,0,0,0,0,0,0,0,0,0,0,0,0,0,0,0,0,0,0,0,0,0,0,-0.0265,-0.0265,0,-0.0261,-0.0261,-0.0261,-0.0252,-0.0252,-0.0252,-0.0251,-0.0257,-0.0257,-0.0258,0,0,0,0,0,0,0,0,0,0,0,0,0,-0.0285,-0.0284,-0.0265,-0.0265,-0.0265,-0.0261,-0.0261,-0.0261,-0.0252,-0.0252,-0.0252,-0.0251,-0.0257,-0.0257,-0.0258,0,0,0,0,0,0,0,0,0,0,0,0,0,-0.0278,-0.0284,-0.0265,-0.026,-0.0259,-0.0261,-0.0261,-0.0261,-0.0252,-0.0252,-0.0252,-0.0251,-0.0257,-0.0257,-0.0258,-0.0268,0,0,-0.026,-0.026,0,0,0,0,0,0,0,0,-0.0279,-0.0278,-0.026,-0.026,-0.0259,-0.0256,-0.027,-0.0263,-0.0252,-0.0256,-0.0251,-0.0251,-0.0257,-0.0258,-0.0259,-0.0268,-0.0269,-0.026,-0.026,-0.026,-0.026,0,0,0,0,0,0,0,-0.0279,-0.0278,-0.0264,-0.026,-0.026,-0.0264,-0.0262,-0.0269,-0.0259,-0.0255,-0.0254,-0.0253,-0.0257,-0.0258,-0.0259,-0.0269,-0.026,-0.026,-0.026,-0.0261,-0.0294,-0.0294,0,0,0,0,0,0,-0.0278,-0.0278,-0.0264,-0.0264,-0.0268,-0.0263,-0.0262,-0.0258,-0.0259,-0.0258,-0.0253,-0.0253,-0.0257,-0.0258,-0.0259,-0.0286,-0.026,-0.0261,-0.0261,-0.0293,-0.0294,-0.0295,0,0,0,0,0,0,-0.0278,-0.0276,-0.0264,-0.0271,-0.0269,-0.0263,-0.0259,-0.0258,-0.026,-0.0257,-0.0257,-0.0256,-0.0257,-0.0258,-0.0267,-0.0285,-0.0261,-0.0261,-0.0293,-0.0294,-0.0294,-0.033,0,0,0,0,0,0,-0.0279,-0.0276,-0.0279,-0.027,-0.0269,-0.0268,-0.0259,-0.0258,-0.0259,-0.0258,-0.0259,-0.0259,-0.0257,-0.0266,-0.0267,-0.0286,-0.0262,-0.0292,-0.0293,-0.0294,-0.0328,-0.0332,-0.0335,0,0,0,0,0,-0.0279,-0.0283,-0.0279,-0.0278,-0.027,-0.0268,-0.0268,-0.0263,-0.0259,-0.0263,-0.0263,-0.0259,-0.0273,-0.0267,-0.0268,-0.0287,-0.0291,-0.0293,-0.0294,-0.0327,-0.0331,-0.0335,0,0,0,0,0,0,-0.0295,-0.0282,-0.0278,-0.0278,-0.0274,-0.0266,-0.0271,-0.0266,-0.0269,-0.0269,-0.0266,-0.0266,-0.0279,-0.0277,-0.027,-0.0299,-0.0282,-0.0284,-0.0307,-0.0311,-0.0315,-0.0311,-0.0262,0,0,0,0,0,-0.0299,-0.0298,-0.0287,-0.0289,-0.0287,-0.028,-0.028,-0.0275,-0.0273,-0.0274,-0.0274,-0.0277,-0.0286,-0.0293,-0.0295,-0.0314,-0.0297,-0.0327,-0.033,-0.0333,-0.0331,-0.0333,-0.0336,-0.0299,-0.0299,-0.0299,0,0,-0.0306,-0.0299,-0.0299,-0.0292,-0.0289,-0.0287,-0.0279,-0.0279,-0.028,-0.0275,-0.0281,-0.0287,-0.0292,-0.031,-0.0316,-0.0312,-0.0332,-0.0335,-0.0338,-0.0333,-0.0334,-0.0338,-0.0341,-0.03,-0.0299,-0.0299,0,0,-0.0316,-0.0313,-0.0313,-0.0309,-0.0303,-0.0299,-0.0299,-0.0292,-0.0292,-0.0297,-0.0298,-0.0316,-0.0321,-0.0335,-0.0342,-0.0367,-0.0347,-0.0369,-0.0391,-0.0394,-0.0397,-0.0399,-0.0367,-0.0367,-0.0377,-0.0377,-0.0377,0,-0.0323,-0.0319,-0.0314,-0.0312,-0.031,-0.0303,-0.0301,-0.0303,-0.0301,-0.0303,-0.0301,-0.0328,-0.0334,-0.0366,-0.0376,-0.0377,-0.036,-0.0376,-0.0398,-0.0401,-0.0403,-0.037,-0.0368,-0.0378,-0.0378,-0.0378,-0.0378,0,-0.0327,-0.0326,-0.0327,-0.032,-0.032,-0.0319,-0.0314,-0.0317,-0.0317,-0.0317,-0.0341,-0.036,-0.0377,-0.0389,-0.039,-0.0418,-0.0393,-0.0399,-0.0388,-0.0408,-0.0372,-0.037,-0.0381,-0.038,-0.038,-0.0379,0,0,-0.0329,-0.0329,-0.0328,-0.0326,-0.0322,-0.032,-0.0325,-0.0326,-0.033,-0.0344,-0.0362,-0.0392,-0.0407,-0.0416,-0.0434,-0.0444,-0.0444,-0.043,-0.0429,-0.0397,-0.0421,-0.037,-0.0363,-0.0454,-0.0454,-0.0454,-0.0384,0,-0.033,-0.0328,-0.0328,-0.0329,-0.0326,-0.0325,-0.033,-0.0332,-0.0338,-0.0355,-0.0386,-0.0411,-0.0417,-0.0441,-0.0452,-0.0446,-0.0443,-0.046,-0.0405,-0.0403,-0.0356,-0.0361,-0.0455,-0.0382,-0.0382,-0.0381,-0.0381,0,-0.0324,-0.0325,-0.0325,-0.0328,-0.0327,-0.0328,-0.0333,-0.034,-0.036,-0.0373,-0.0407,-0.0424,-0.0457,-0.0462,-0.0455,-0.0464,-0.0442,-0.0432,-0.0429,-0.0369,-0.035,-0.036,-0.0378,-0.0378,-0.0378,-0.0378,-0.0379,0,-0.0317,-0.032,-0.0321,-0.032,-0.0325,-0.0326,-0.0331,-0.0342,-0.0355,-0.0393,-0.0411,-0.0441,-0.0465,-0.0455,-0.0437,-0.0444,-0.0411,-0.0418,-0.0346,-0.034,-0.0391,-0.0389,-0.0404,-0.0404,-0.0404,-0.0404,-0.0405,0,-0.0308,-0.0309,-0.0318,-0.0316,-0.0317,-0.0326,-0.0333,-0.0345,-0.0378,-0.0386,-0.0429,-0.0438,-0.0465,-0.0452,-0.0431,-0.0374,-0.0403,-0.034,-0.0324,-0.0405,-0.0406,-0.0388,-0.0388,-0.0402,-0.0402,-0.0403,-0.0403,0,-0.0294,-0.0301,-0.0303,-0.031,-0.0312,-0.0314,-0.0333,-0.0339,-0.0377,-0.0395,-0.0413,-0.0436,-0.0404,-0.0408,-0.038,-0.0356,-0.0317,-0.0289,-0.0351,-0.0341,-0.0238,-0.024,-0.0191,-0.0189,-0.0187,-0.0185,-0.0184,0,-0.0288,-0.0286,-0.0293,-0.029,-0.0292,-0.0299,-0.0298,-0.0335,-0.0339,-0.0371,-0.037,-0.0368,-0.0368,-0.0283,-0.0291,-0.0242,-0.0241,-0.0218,-0.0251,-0.0229,-0.0219,-0.0224,-0.0228,-0.0181,-0.018,-0.018,-0.0179,0,-0.0274,-0.0277,-0.0277,-0.0267,-0.0264,-0.0262,-0.0264,-0.0271,-0.0301,-0.0344,-0.0311,-0.0297,-0.0256,-0.0228,-0.0203,-0.0171,-0.0237,-0.0198,-0.0202,-0.0233,-0.0217,-0.0209,-0.0216,-0.0173,-0.0174,-0.0174,-0.0175,0,-0.0265,-0.0258,-0.0253,-0.0241,-0.0232,-0.0211,-0.0224,-0.0211,-0.0225,-0.0263,-0.0234,-0.0228,-0.0235,-0.0186,-0.0155,-0.0131,-0.0122,-0.0118,-0.0126,-0.0134,-0.0151,-0.0124,-0.0031,0,0,0,0,0,-0.0252,-0.0236,-0.0224,-0.0201,-0.0187,-0.0179,-0.0187,-0.0203,-0.023,-0.0193,-0.0219,-0.0175,-0.0135,-0.0125,-0.0084,-0.012,-0.0125,-0.0072,-0.0126,-0.0136,-0.0144,-0.0171,0,0,0,0,0,0,-0.0242,-0.0231,-0.0217,-0.0165,-0.0138,-0.0117,-0.012,-0.0141,-0.012,-0.0151,-0.0124,-0.0147,-0.0106,-0.0148,-0.0074,-0.0072,-0.0096,-0.0069,-0.0067,-0.0132,-0.0139,-0.0145,-0.0176,0,0,0,0,0]},{"header":{"parameterUnit":"m.s-1","parameterCategory":2,"la1":30.2991,"la2":30.254,"lo1":-89.0895,"lo2":-89.0444,"dy":0.0017,"dx":0.0017,"nx":28,"ny":28,"refTime":"2024-11-23T09:00:00:Z","depth":"4","parameterNumber":3,"parameterNumberName":"V-component_of_CURRENTS"},"data":[0,0,0,0,0,0,0,0,0,0,0,0,0,0,0,0,0,0,0,0,0,0,0,0,0,0,0,0,0,0,0,0,0,0,0,0,0,0,0,0,0,0,0,0,0,0,0,0,0,0,0,0,0,0,0,0,0,0,0.026,0.026,0,0.0246,0.0246,0.0246,0.0259,0.026,0.0261,0.0261,0.0234,0.0233,0.0231,0,0,0,0,0,0,0,0,0,0,0,0,0,0.0268,0.0268,0.026,0.026,0.026,0.0246,0.0246,0.0245,0.0259,0.026,0.0261,0.0261,0.0234,0.0233,0.0231,0,0,0,0,0,0,0,0,0,0,0,0,0,0.0259,0.0268,0.0261,0.0266,0.0267,0.0246,0.0246,0.0245,0.0259,0.026,0.0261,0.0262,0.0235,0.0233,0.0231,0.0199,0,0,0.0225,0.0224,0,0,0,0,0,0,0,0,0.026,0.0259,0.0266,0.0266,0.0266,0.0257,0.0239,0.023,0.0259,0.0261,0.0261,0.0262,0.024,0.0238,0.0232,0.0198,0.0197,0.0225,0.0224,0.0223,0.0222,0,0,0,0,0,0,0,0.026,0.0259,0.0254,0.0265,0.0266,0.0259,0.0259,0.0237,0.0244,0.0261,0.0262,0.0262,0.0241,0.0234,0.0231,0.0196,0.0225,0.0223,0.0222,0.0221,0.0146,0.0145,0,0,0,0,0,0,0.0265,0.026,0.0254,0.0253,0.0267,0.0258,0.0258,0.0258,0.0245,0.0244,0.0261,0.0262,0.0236,0.0233,0.023,0.0205,0.0223,0.0221,0.022,0.0146,0.0146,0.0145,0,0,0,0,0,0,0.0265,0.0265,0.0255,0.0257,0.0256,0.0257,0.0257,0.0257,0.0256,0.0245,0.0244,0.0261,0.0237,0.0233,0.021,0.0204,0.022,0.0218,0.0147,0.0146,0.0145,0.0146,0,0,0,0,0,0,0.0266,0.0265,0.0264,0.0258,0.0256,0.0244,0.0256,0.0256,0.0255,0.0257,0.0244,0.0243,0.0238,0.0213,0.0208,0.0201,0.0217,0.0148,0.0147,0.0145,0.0147,0.0145,0.0144,0,0,0,0,0,0.0266,0.0262,0.0264,0.0263,0.0255,0.0243,0.0241,0.0245,0.0254,0.0249,0.024,0.0243,0.02,0.0211,0.0205,0.0198,0.0149,0.0147,0.0146,0.0148,0.0146,0.0144,0,0,0,0,0,0,0.0264,0.0262,0.0265,0.026,0.0253,0.0246,0.0243,0.0244,0.0232,0.0236,0.0229,0.0226,0.0203,0.0195,0.0207,0.017,0.0176,0.0173,0.018,0.0178,0.0176,0.0176,0.0215,0,0,0,0,0,0.0263,0.0261,0.0255,0.0252,0.0249,0.0245,0.0241,0.0242,0.0233,0.023,0.022,0.0207,0.0189,0.0181,0.0162,0.0139,0.0143,0.0131,0.0129,0.0128,0.0123,0.0127,0.0125,0.0139,0.0139,0.0139,0,0,0.0263,0.026,0.026,0.0251,0.0247,0.0235,0.0245,0.0238,0.0227,0.0226,0.0207,0.0197,0.018,0.0157,0.0146,0.0152,0.0125,0.0125,0.0124,0.012,0.0125,0.0124,0.0123,0.0137,0.0138,0.0138,0,0,0.0258,0.0257,0.0253,0.0244,0.0237,0.023,0.0229,0.022,0.0216,0.0193,0.0192,0.0176,0.0149,0.0136,0.0126,0.0099,0.0114,0.0098,0.0091,0.0095,0.0095,0.0094,0.0101,0.0101,0.01,0.01,0.01,0,0.026,0.0246,0.0249,0.0238,0.0226,0.0228,0.0212,0.0205,0.0189,0.0177,0.0187,0.0145,0.0136,0.0105,0.0103,0.0095,0.0106,0.0104,0.0095,0.0094,0.0094,0.0101,0.0101,0.01,0.01,0.01,0.01,0,0.0246,0.0234,0.0229,0.0215,0.0204,0.0188,0.0179,0.0167,0.0163,0.0154,0.0126,0.0115,0.0093,0.0089,0.009,0.0077,0.0089,0.0093,0.0105,0.0093,0.01,0.0101,0.01,0.01,0.01,0.01,0,0,0.025,0.0225,0.0222,0.0201,0.0186,0.017,0.0153,0.0128,0.0108,0.0103,0.0077,0.0058,0.0064,0.0052,0.0054,0.006,0.0071,0.0082,0.0082,0.0097,0.009,0.0041,0.0037,0.0085,0.0085,0.0085,0.0099,0,0.0235,0.0203,0.0197,0.0159,0.0134,0.0127,0.0106,0.0087,0.0074,0.0051,0.0047,0.0027,0.0047,0.0043,0.0052,0.0064,0.0071,0.0067,0.0092,0.0092,0.0058,0.0034,0.0084,0.01,0.01,0.01,0.01,0,0.0215,0.0192,0.0156,0.0111,0.0101,0.0084,0.0042,0.0025,0.0003,-0.0003,-0.001,-0.0008,-0.0005,0.0017,0.004,0.0043,0.0066,0.008,0.0081,0.0032,0.0042,0.0112,0.01,0.01,0.01,0.01,0.01,0,0.0192,0.0156,0.0121,0.0107,0.0068,0.005,0.0032,0.0007,-0.0016,-0.0028,-0.0039,-0.0035,-0.003,-0.0,0.0033,0.0046,0.0059,0.0077,0.005,0.0048,0.0091,0.0092,0.0089,0.0089,0.0089,0.0089,0.0089,0,0.016,0.0129,0.0108,0.0084,0.0038,0.0026,-0.0018,-0.0031,-0.0052,-0.0083,-0.006,-0.0082,-0.0029,-0.0017,0.002,0.0028,0.0051,0.0038,0.0041,0.0091,0.0091,0.0092,0.0092,0.0089,0.0089,0.0089,0.0089,0,0.0128,0.0117,0.0072,0.0036,0.0023,-0.0008,-0.0046,-0.0078,-0.0081,-0.0115,-0.0114,-0.0108,-0.0091,-0.0053,-0.0013,0.0001,0.0019,0.0017,0.0061,0.0068,0.0013,0.0013,-0.0009,-0.0011,-0.0013,-0.0014,-0.0015,0,0.01,0.0078,0.004,0.0015,-0.0002,-0.0043,-0.0074,-0.0091,-0.0116,-0.0141,-0.0158,-0.0152,-0.0145,-0.0117,-0.0083,-0.0035,-0.0028,-0.0014,0.0002,-0.0006,0.0,0.0003,0.0005,-0.0017,-0.0018,-0.0018,-0.0018,0,0.0048,0.0048,0.0016,-0.0024,-0.0058,-0.0104,-0.0139,-0.0157,-0.0175,-0.0179,-0.0191,-0.0184,-0.0181,-0.0144,-0.0112,-0.0078,-0.0021,-0.0029,-0.0025,-0.001,-0.0015,-0.0008,-0.0004,-0.0024,-0.0023,-0.0022,-0.0022,0,0.0014,-0.001,-0.0033,-0.0069,-0.0108,-0.0148,-0.0167,-0.019,-0.0209,-0.0212,-0.0226,-0.021,-0.0193,-0.0171,-0.0149,-0.0119,-0.0107,-0.0083,-0.0076,-0.007,-0.0098,-0.0115,-0.0161,0,0,0,0,0,-0.0024,-0.0045,-0.008,-0.0119,-0.015,-0.0165,-0.0206,-0.0217,-0.0226,-0.0231,-0.0221,-0.0215,-0.0196,-0.0194,-0.0171,-0.0187,-0.0112,-0.0163,-0.0083,-0.0053,-0.0047,-0.0076,0,0,0,0,0,0,-0.0055,-0.0084,-0.0088,-0.014,-0.0163,-0.0205,-0.0223,-0.0233,-0.0229,-0.0227,-0.0209,-0.0207,-0.018,-0.019,-0.0163,-0.0162,-0.011,-0.0151,-0.0152,-0.0056,-0.0051,-0.0046,-0.0074,0,0,0,0,0]}]]